OK1FET-5 Weather Reports


Display with metric or nautical units.
time (UTC)temp
F
wind
direction
speed
MPH
gust
MPH
rain 1hr
in
rain 24hr
in
rain mn
in
humidity
%
barometer
mb
20260902232107 59 230 0.0 1.0 0.00 0.00 0.00 74 1021.9
20260902231111 59 270 0.0 2.0 0.00 0.00 0.00 74 1021.8
20260902230116 60 270 1.0 2.0 0.00 0.00 0.00 74 1021.8
20260902225120 60 198 1.0 2.0 0.00 0.00 0.00 74 1021.9
20260902224124 60 225 0.0 2.0 0.00 0.00 0.00 73 1021.9
20260902223128 60 224 0.0 0.0 0.00 0.00 0.00 73 1021.9
20260902222133 61 13 2.0 3.0 0.00 0.00 0.00 75 1021.8
20260902221137 61 305 1.0 2.0 0.00 0.00 0.00 73 1021.9
20260902220141 62 219 1.0 2.0 0.00 0.00 0.00 73 1021.9
20260902215145 62 184 2.0 4.0 0.00 0.00 0.00 73 1021.8
20260902214150 62 187 3.0 5.0 0.00 0.00 0.00 74 1021.9
20260902213154 62 219 2.0 4.0 0.00 0.00 0.00 74 1021.9
20260902212158 61 235 1.0 2.0 0.00 0.00 0.00 74 1021.8
20260902211203 60 300 2.0 3.0 0.00 0.00 0.00 72 1021.7
20260902210207 60 284 1.0 3.0 0.00 0.00 0.00 71 1021.7
20260902205211 60 280 1.0 2.0 0.00 0.00 0.00 71 1021.6
20260902204215 60 255 1.0 2.0 0.00 0.00 0.00 70 1021.5
20260902203220 61 301 2.0 5.0 0.00 0.00 0.00 69 1021.5
20260902202224 62 280 2.0 4.0 0.00 0.00 0.00 67 1021.4
20260902201228 62 225 0.0 1.0 0.00 0.00 0.00 65 1021.3
20260902200232 63 236 1.0 1.0 0.00 0.00 0.00 65 1021.3
20260902195237 63 265 1.0 2.0 0.00 0.00 0.00 65 1021.3
20260902193245 62 52 1.0 2.0 0.00 0.00 0.00 66 1021.3
20260902192249 62 74 1.0 2.0 0.00 0.00 0.00 66 1021.3
20260902191254 62 36 1.0 2.0 0.00 0.00 0.00 68 1021.2
20260902190258 61 101 0.0 1.0 0.00 0.00 0.00 67 1021.1
20260902185306 62 332 0.0 2.0 0.00 0.00 0.00 67 1021.0
20260902184306 62 253 0.0 2.0 0.00 0.00 0.00 68 1021.0
20260902183311 63 339 2.0 7.0 0.00 0.00 0.00 71 1021.1
20260902182315 63 354 1.0 2.0 0.00 0.00 0.00 66 1020.9
20260902181319 63 325 1.0 4.0 0.00 0.00 0.00 67 1020.7
20260902180323 63 323 2.0 5.0 0.00 0.00 0.00 67 1020.7
20260902175328 64 323 2.0 5.0 0.00 0.00 0.00 65 1020.7
20260902174332 64 326 3.0 5.0 0.00 0.00 0.00 64 1020.5
20260902173336 64 322 3.0 5.0 0.00 0.00 0.00 62 1020.4
20260902172340 65 328 3.0 7.0 0.00 0.00 0.00 60 1020.4
20260902171345 69 315 3.0 7.0 0.00 0.00 0.00 58 1020.5
20260902170349 73 231 2.0 3.0 0.00 0.00 0.00 46 1020.1
20260902165353 73 210 2.0 4.0 0.00 0.00 0.00 46 1020.0
20260902164357 74 205 2.0 4.0 0.00 0.00 0.00 46 1020.1
20260902163402 75 186 4.0 7.0 0.00 0.00 0.00 45 1020.1
20260902162406 75 191 5.0 7.0 0.00 0.00 0.00 44 1020.2
20260902161410 75 192 6.0 10.0 0.00 0.00 0.00 44 1020.2
20260902160414 75 188 8.0 12.0 0.00 0.00 0.00 44 1020.2
20260902155419 75 179 9.0 12.0 0.00 0.00 0.00 44 1020.3
20260902154423 76 165 10.0 12.0 0.00 0.00 0.00 44 1020.2
20260902153427 76 178 12.0 16.0 0.00 0.00 0.00 43 1020.2
20260902152431 76 169 10.0 14.0 0.00 0.00 0.00 43 1020.3
20260902151435 77 190 8.0 14.0 0.00 0.00 0.00 43 1020.5
20260902150440 77 188 8.0 12.0 0.00 0.00 0.00 42 1020.6
20260902145444 77 195 7.0 12.0 0.00 0.00 0.00 41 1020.8
20260902144448 78 193 8.0 12.0 0.00 0.00 0.00 40 1020.9
20260902143452 80 188 9.0 18.0 0.00 0.00 0.00 39 1020.8
20260902142457 83 228 4.0 12.0 0.00 0.00 0.00 37 1020.9
20260902141501 82 222 6.0 14.0 0.00 0.00 0.00 38 1021.0
20260902140505 80 202 9.0 15.0 0.00 0.00 0.00 39 1021.0
20260902135509 82 206 8.0 14.0 0.00 0.00 0.00 37 1021.2
20260902134514 81 161 3.0 6.0 0.00 0.00 0.00 40 1021.3
20260902133518 81 161 3.0 8.0 0.00 0.00 0.00 39 1021.4
20260902132522 81 165 3.0 10.0 0.00 0.00 0.00 39 1021.4
20260902131526 79 177 2.0 5.0 0.00 0.00 0.00 42 1021.5
20260902130530 77 158 2.0 7.0 0.00 0.00 0.00 44 1021.6
20260902125535 79 168 2.0 4.0 0.00 0.00 0.00 41 1021.8
20260902124539 80 241 1.0 3.0 0.00 0.00 0.00 40 1021.9
20260902123543 79 213 4.0 11.0 0.00 0.00 0.00 40 1022.0
20260902122547 81 260 4.0 12.0 0.00 0.00 0.00 38 1022.1
20260902121552 85 208 4.0 9.0 0.00 0.00 0.00 36 1022.0
20260902120556 86 203 5.0 12.0 0.00 0.00 0.00 35 1022.2
20260902115600 87 292 2.0 3.0 0.00 0.00 0.00 36 1022.3
20260902114604 86 283 3.0 6.0 0.00 0.00 0.00 36 1022.3
20260902113609 85 285 2.0 5.0 0.00 0.00 0.00 37 1022.3
20260902112613 85 252 3.0 6.0 0.00 0.00 0.00 35 1022.4
20260902111617 87 265 2.0 6.0 0.00 0.00 0.00 37 1022.6
20260902110621 85 258 4.0 11.0 0.00 0.00 0.00 39 1022.7
20260902105625 86 162 2.0 8.0 0.00 0.00 0.00 39 1022.8
20260902104630 84 243 2.0 7.0 0.00 0.00 0.00 40 1022.9
20260902103634 81 266 1.0 3.0 0.00 0.00 0.00 44 1023.0
20260902102638 83 235 1.0 3.0 0.00 0.00 0.00 43 1023.1
20260902101642 83 229 3.0 7.0 0.00 0.00 0.00 41 1023.2
20260902100646 82 238 2.0 8.0 0.00 0.00 0.00 42 1023.2
20260902095651 79 192 3.0 8.0 0.00 0.00 0.00 47 1023.4
20260902094655 74 164 4.0 9.0 0.00 0.00 0.00 52 1023.3
20260902093659 76 187 2.0 6.0 0.00 0.00 0.00 50 1023.5
20260902092703 76 173 3.0 7.0 0.00 0.00 0.00 49 1023.5
20260902091707 78 154 3.0 7.0 0.00 0.00 0.00 49 1023.5
20260902090712 74 161 2.0 7.0 0.00 0.00 0.00 51 1023.5
20260902085716 77 147 4.0 7.0 0.00 0.00 0.00 50 1023.4
20260902084720 76 138 3.0 6.0 0.00 0.00 0.00 50 1023.4
20260902083724 77 164 3.0 7.0 0.00 0.00 0.00 50 1023.5
20260902082728 77 182 3.0 7.0 0.00 0.00 0.00 51 1023.5
20260902081733 73 146 4.0 7.0 0.00 0.00 0.00 53 1023.4
20260902080737 74 149 3.0 6.0 0.00 0.00 0.00 54 1023.4
20260902075741 74 138 3.0 6.0 0.00 0.00 0.00 54 1023.5
20260902074745 75 119 2.0 5.0 0.00 0.00 0.00 52 1023.4
20260902073749 75 111 3.0 4.0 0.00 0.00 0.00 53 1023.3
20260902072754 75 143 2.0 5.0 0.00 0.00 0.00 53 1023.4
20260902071758 76 302 1.0 4.0 0.00 0.00 0.00 54 1023.4
20260902070802 75 285 2.0 4.0 0.00 0.00 0.00 55 1023.5
20260902065806 74 286 2.0 4.0 0.00 0.00 0.00 56 1023.5
20260902064811 74 263 1.0 3.0 0.00 0.00 0.00 57 1023.5
20260902063815 74 250 0.0 2.0 0.00 0.00 0.00 59 1023.5
20260902062819 72 246 1.0 4.0 0.00 0.00 0.00 60 1023.5
20260902061823 71 250 1.0 3.0 0.00 0.00 0.00 61 1023.5
20260902060827 70 210 0.0 2.0 0.00 0.00 0.00 61 1023.4
20260902054836 67 300 2.0 3.0 0.00 0.00 0.00 65 1023.4
20260902053840 66 307 0.0 2.0 0.00 0.00 0.00 66 1023.4
20260902052844 65 113 1.0 2.0 0.00 0.00 0.00 67 1023.4
20260902051849 64 307 1.0 2.0 0.00 0.00 0.00 68 1023.3
20260902050853 62 244 0.0 2.0 0.00 0.00 0.00 70 1023.1
20260902045857 60 261 1.0 2.0 0.00 0.00 0.00 72 1023.0
20260902044901 58 232 0.0 1.0 0.00 0.00 0.00 74 1022.9
20260902043906 56 122 1.0 2.0 0.00 0.00 0.00 77 1022.7
20260902041914 56 314 5.0 6.0 0.00 0.00 0.00 77 1022.6
20260902040918 56 313 5.0 6.0 0.00 0.00 0.00 77 1022.5
20260902035923 56 312 5.0 6.0 0.00 0.00 0.00 77 1022.5
20260902034927 56 311 5.0 6.0 0.00 0.00 0.00 77 1022.4
20260902033931 56 313 6.0 7.0 0.00 0.00 0.00 77 1022.5
20260902032935 57 313 5.0 6.0 0.00 0.00 0.00 76 1022.5
20260902031940 57 314 5.0 6.0 0.00 0.00 0.00 77 1022.5
20260902030944 57 315 5.0 6.0 0.00 0.00 0.00 77 1022.5
20260902025948 56 313 4.0 5.0 0.00 0.00 0.00 77 1022.6
20260902024953 56 312 4.0 6.0 0.00 0.00 0.00 76 1022.7
20260902023957 56 314 4.0 6.0 0.00 0.00 0.00 76 1022.7
20260902023001 56 312 4.0 5.0 0.00 0.00 0.00 75 1022.7
20260902022005 57 314 5.0 6.0 0.00 0.00 0.00 74 1022.7
20260902021010 57 314 5.0 6.0 0.00 0.00 0.00 74 1022.5
20260902020014 57 314 4.0 6.0 0.00 0.00 0.00 74 1022.5
20260902015018 57 313 3.0 4.0 0.00 0.00 0.00 72 1022.5
20260902014023 57 290 1.0 3.0 0.00 0.00 0.00 71 1022.5
20260902013027 57 349 1.0 2.0 0.00 0.00 0.00 71 1022.5
20260902012031 57 174 0.0 2.0 0.00 0.00 0.00 70 1022.4
20260902011035 57 148 0.0 2.0 0.00 0.00 0.00 71 1022.4
20260902010039 57 150 0.0 2.0 0.00 0.00 0.00 71 1022.4
20260902005044 57 343 1.0 3.0 0.00 0.00 0.00 70 1022.3
20260902004048 58 338 1.0 2.0 0.00 0.00 0.00 70 1022.3
20260902003052 58 314 2.0 4.0 0.00 0.00 0.00 70 1022.4
20260902002057 58 326 4.0 6.0 0.00 0.00 0.00 70 1022.3
20260902001101 59 312 5.0 7.0 0.00 0.00 0.00 70 1022.3
20260902000105 59 308 5.0 7.0 0.00 0.00 0.00 70 1022.3
20260901235109 59 306 4.0 6.0 0.00 0.00 0.00 69 1022.3
20260901234114 59 307 4.0 6.0 0.00 0.00 0.00 69 1022.3
20260901233118 60 310 4.0 6.0 0.00 0.00 0.00 68 1022.2